Tracking 25620 objects as of 18-May-2022
HD Live streaming from Space Station
objects crossing your sky now

CZ-4C R/B

Track CZ-4C R/B now!
10-day predictions


NORAD ID: 39014
Int'l Code: 2012-066D
Perigee: 648.5 km
Apogee: 1,362.9 km
Inclination: 63.4 °
Period: 105.1 minutes
Semi major axis: 7376 km
RCS: 7.8899 m2 (large)
Launch date: November 25, 2012
Source: People's Republic of China (PRC)
Launch site: Jiuquan Satellite Launch Center, China (JSC)

Note: This is a ROCKET BODY
aabbcc
Your satellite tracking list
Your tracking list is empty




NASA's NSSDC Master Catalog

Two Line Element Set (TLE):
1 39014U 12066D   22137.74185618  .00000089  00000-0  96690-4 0  9998
2 39014  63.4063 147.7568 0484187   5.6119 355.0076 13.70279916474065
Source of the keplerian elements: AFSPC